This is the latest recevied weather packets stored in our database for station/object NW5W-12. If no packets are shown the sender has not sent any weather packets the latest 1 day(s).
| Time | Temp. | Humidity | Pressure | Rain* | Wind** | Luminosity | Snow |
|---|---|---|---|---|---|---|---|
| 1778058342 | 4.44° C | 92% | 1014.8 hPa | 3.05 mm | 4.02 m/s, 4° | - | - |
| 1778058042 | 5° C | 90% | 1014.5 hPa | 2.54 mm | 5.36 m/s, 340° | - | - |
| 1778057742 | 5° C | 87% | 1014.5 hPa | 1.52 mm | 3.13 m/s, 333° | - | - |
| 1778057442 | 5.56° C | 85% | 1014.3 hPa | 1.27 mm | 2.24 m/s, 260° | - | - |
| 1778057142 | 5.56° C | 83% | 1014.1 hPa | 0.25 mm | 0.89 m/s, 221° | - | - |
| 1778056842 | 5.56° C | 83% | 1014 hPa | 0 mm | 1.79 m/s, 195° | - | - |
| 1778056542 | 5.56° C | 83% | 1013.6 hPa | 0 mm | 1.34 m/s, 201° | - | - |
| 1778056242 | 5.56° C | 83% | 1013.5 hPa | 0 mm | 1.79 m/s, 188° | - | - |
| 1778055942 | 5.56° C | 82% | 1013.5 hPa | 0 mm | 0.45 m/s, 184° | - | - |
| 1778055642 | 5.56° C | 83% | 1013.4 hPa | 0 mm | 0 m/s | - | - |
| 1778055342 | 5.56° C | 83% | 1013.5 hPa | 0 mm | 0 m/s | - | - |
| 1778055042 | 5.56° C | 83% | 1013.6 hPa | 0 mm | 0.45 m/s, 315° | - | - |
| 1778054742 | 5.56° C | 82% | 1013.5 hPa | 0 mm | 0 m/s | - | - |
| 1778054442 | 5.56° C | 81% | 1013.5 hPa | 0 mm | 0 m/s | - | - |
| 1778054142 | 5.56° C | 80% | 1013.5 hPa | 0 mm | 0 m/s | - | - |
| 1778053842 | 5.56° C | 80% | 1013.6 hPa | 0 mm | 1.34 m/s, 313° | - | - |
| 1778053542 | 5.56° C | 80% | 1013.7 hPa | 0 mm | 1.34 m/s, 309° | - | - |
| 1778053242 | 5.56° C | 81% | 1013.8 hPa | 0 mm | 1.79 m/s, 315° | - | - |
| 1778052942 | 6.11° C | 81% | 1014 hPa | 0 mm | 0.89 m/s, 348° | - | - |
| 1778052642 | 6.11° C | 79% | 1014 hPa | 0 mm | 1.79 m/s, 353° | - | - |
| 1778052342 | 6.11° C | 77% | 1013.9 hPa | 0 mm | 1.79 m/s, 342° | - | - |
| 1778052042 | 6.67° C | 76% | 1013.9 hPa | 0 mm | 2.24 m/s, 331° | - | - |
| 1778051742 | 6.67° C | 75% | 1013.9 hPa | 0 mm | 1.34 m/s, 314° | - | - |
| 1778051442 | 7.22° C | 73% | 1013.9 hPa | 0 mm | 1.79 m/s, 320° | - | - |
| 1778051142 | 7.22° C | 71% | 1013.9 hPa | 0 mm | 1.79 m/s, 318° | - | - |
* Rain since midnight (hover to see other rain measurements)
** Current wind speed in m/s (hover to see current wind gust speed)